View from above orbital plane
|
View from above satellite
|
Ground track
|
The orbit data is extracted from the following two-line orbital elements,
1 31114U 07010B 21101.78360637 .00000058 00000-0 45351-4 0 9998
2 31114 98.2366 300.1712 0060814 116.7715 243.9702 14.19356159725327
Epoch (UTC): | 11 April 2021 18:48:23 |
Eccentricity: | 0.0060814 |
inclination: | 98.2366° |
perigee height: | 784 km |
apogee height: | 871 km |
right ascension of ascending node: | 300.1712° |
argument of perigee: | 116.7715° |
revolutions per day: | 14.19356159 |
mean anomaly at epoch: | 243.9702° |
orbit number at epoch: | 72532 |
The dashed part of the orbit path shows where the satellite is in the earth's shadow,
|
|